Skip Page Navigation
NASA JPL Caltech
NASA Logo - Jet Propulsion Laboratory + View the NASA Portal
+ Center for Near-Earth Object Studies
JPL Home Earth Solar System Stars & Galaxies Technology
JPL Solar System Dynamics
BODIES ORBITS EPHEMERIDES TOOLS PHYSICAL DATA DISCOVERY FAQ SITE MAP
IMPORTANT: The SSD Announcement email list is now available. Major changes are coming in the near future, including possible hostname and/or URL changes. To be notified of such changes, subscribe to this email list.

Please visit this page for more details.


JPL Small-Body Database Browser
Search: [ help ]  
324011 (2005 UV309)
Classification: Main-belt Asteroid          SPK-ID: 2324011
Ephemeris | Orbit Diagram | Orbital Elements | Mission Design | Physical Parameters | Discovery Circumstances | Close-Approach Data ]

[ show orbit diagram ]
Orbital Elements at Epoch 2458600.5 (2019-Apr-27.0) TDB
Reference: JPL 10 (heliocentric ecliptic J2000)
 Element Value Uncertainty (1-sigma)   Units 
e .1484647378151876 9.9472e-08  
a 2.774298792284495 3.4262e-08 au
q 2.362413249466986 2.8596e-07 au
i 13.95686805620498 1.0451e-05 deg
node 54.96137262717162 2.9748e-05 deg
peri 203.1182521893691 4.5526e-05 deg
M 114.7603590169995 4.0189e-05 deg
tp 2458062.456147631687
(2017-Nov-04.95614763)
0.00018479 TDB
period 1687.828345185818
4.62
3.1266e-05
8.56e-08
d
yr
n .2132918320911162 3.9511e-09 deg/d
Q 3.186184335102004 3.9349e-08 au
  Orbit Determination Parameters
   # obs. used (total)      156  
   data-arc span      6103 days (16.71 yr)  
   first obs. used      2000-10-01  
   last obs. used      2017-06-17  
   planetary ephem.      DE431  
   SB-pert. ephem.      SB431-N16  
   condition code      0  
   norm. resid. RMS      .63318  
   source      ORB  
   producer      Otto Matic  
   solution date      2019-Jul-14 06:00:48  

Additional Information
 Earth MOID = 1.35397 au 
 Jupiter MOID = 1.87207 au 
 T_jup = 3.277 
[ show covariance matrix ]

Ephemeris | Orbit Diagram | Orbital Elements | Mission Design | Physical Parameters | Discovery Circumstances | Close-Approach Data ]

Physical Parameter Table
Parameter Symbol Value Units Sigma Reference Notes
absolute magnitude H 16.1   n/a MPO413305  

324011 (2005 UV309)          Discovered 2005-Oct-28 by Mt. Lemmon Survey at Mount Lemmon
Reference: 20120406/Numbers.arcLast Updated: 2012-04-09

[ show close-approach data ]
Ephemeris | Orbit Diagram | Orbital Elements | Mission Design | Physical Parameters | Discovery Circumstances | Close-Approach Data ]
ABOUT SSD CREDITS/AWARDS PRIVACY/COPYRIGHT GLOSSARY LINKS
FirstGov
(server date/time)  
NASA Home Page
Site Manager:   Ryan S. Park
Webmaster  Alan B. Chamberlin